,,,PA_Meas_PMT16A,,PR_Meas_QMR101_102,,RH_Meas_QMH101,,SR_Meas_QMS101,,TA_Meas_QMH101,,GenWind,,GenWind,
date,time,status,PA,status,PR,status,RH,status,SR,status,TA,status,DirAvg,status,SpdAvg,
2010-04-16, 00:00:04,VALID,1001.45,VALID,0,VALID,92.7228,VALID,0,VALID,24.677,VALID,167,VALID,0,
2010-04-16, 00:01:04,VALID,1001.43,VALID,0,VALID,92.7762,VALID,0,VALID,24.677,VALID,167,VALID,0,
2010-04-16, 00:02:04,VALID,1001.43,VALID,0,VALID,92.7762,VALID,0,VALID,24.6751,VALID,167,VALID,0,
2010-04-16, 00:03:04,VALID,1001.42,VALID,0,VALID,92.7685,VALID,0.112286,VALID,24.6342,VALID,144,VALID,0,
2010-04-16, 00:04:04,VALID,1001.44,VALID,0,VALID,92.8372,VALID,0,VALID,24.6556,VALID,133,VALID,0,
2010-04-16, 00:05:04,VALID,1001.46,VALID,0,VALID,92.8677,VALID,0.112286,VALID,24.6556,VALID,126,VALID,0,
2010-04-16, 00:06:04,VALID,1001.43,VALID,0,VALID,92.8143,VALID,0.112286,VALID,24.6147,VALID,126,VALID,0,
2010-04-16, 00:07:04,VALID,1001.46,VALID,0,VALID,92.8067,VALID,0.112286,VALID,24.5757,VALID,126,VALID,0,
2010-04-16, 00:08:04,VALID,1001.45,VALID,0,VALID,92.822,VALID,0.112286,VALID,24.5775,VALID,126,VALID,0,
2010-04-16, 00:09:04,VALID,1001.44,VALID,0,VALID,92.8448,VALID,0.112286,VALID,24.558,VALID,126,VALID,0,
2010-04-16, 00:10:04,VALID,1001.45,VALID,0,VALID,92.944,VALID,0.112286,VALID,24.5385,VALID,123,VALID,0,
2010-04-16, 00:11:04,VALID,1001.4,VALID,0,VALID,93.0737,VALID,0.112286,VALID,24.5775,VALID,110,VALID,0,
2010-04-16, 00:12:04,VALID,1001.41,VALID,0,VALID,93.1043,VALID,0.112286,VALID,24.5757,VALID,100,VALID,0,
2010-04-16, 00:13:04,VALID,1001.4,VALID,0,VALID,93.1043,VALID,0.112286,VALID,24.5971,VALID,87,VALID,0,
2010-04-16, 00:14:04,VALID,1001.4,VALID,0,VALID,93.089,VALID,0.112286,VALID,24.5971,VALID,75,VALID,0,
2010-04-16, 00:15:04,VALID,1001.39,VALID,0,VALID,93.0814,VALID,0.112286,VALID,24.5775,VALID,63,VALID,0.985156,
2010-04-16, 00:16:04,VALID,1001.38,VALID,0,VALID,93.0966,VALID,0.112286,VALID,24.5794,VALID,52,VALID,0.90625,
2010-04-16, 00:17:04,VALID,1001.36,VALID,0,VALID,93.1195,VALID,0,VALID,24.5209,VALID,50,VALID,0.910547,
2010-04-16, 00:18:04,VALID,1001.33,VALID,0,VALID,93.1195,VALID,0,VALID,24.4995,VALID,26,VALID,0.762891,
2010-04-16, 00:19:04,VALID,1001.33,VALID,0,VALID,93.1195,VALID,0,VALID,24.4818,VALID,11,VALID,0.826953,
2010-04-16, 00:20:04,VALID,1001.34,VALID,0,VALID,93.15,VALID,0,VALID,24.4818,VALID,1,VALID,0.980078,
2010-04-16, 00:21:04,VALID,1001.32,VALID,0,VALID,93.1805,VALID,0,VALID,24.4623,VALID,359,VALID,0.683203,
2010-04-16, 00:22:04,VALID,1001.32,VALID,0,VALID,93.2111,VALID,0,VALID,24.4623,VALID,358,VALID,0.504297,
2010-04-16, 00:23:04,VALID,1001.31,VALID,0,VALID,93.2416,VALID,0,VALID,24.4818,VALID,358,VALID,0,
2010-04-16, 00:24:04,VALID,1001.34,VALID,0,VALID,93.2874,VALID,0,VALID,24.5013,VALID,11,VALID,0.131641,
2010-04-16, 00:25:04,VALID,1001.32,VALID,0,VALID,93.2874,VALID,0,VALID,24.5013,VALID,11,VALID,0,
2010-04-16, 00:26:04,VALID,1001.33,VALID,0,VALID,93.295,VALID,0,VALID,24.5013,VALID,11,VALID,0,
2010-04-16, 00:27:04,VALID,1001.32,VALID,0,VALID,93.3026,VALID,0,VALID,24.5013,VALID,11,VALID,0,
2010-04-16, 00:28:04,VALID,1001.31,VALID,0,VALID,93.3255,VALID,0,VALID,24.48,VALID,11,VALID,0,
2010-04-16, 00:29:04,VALID,1001.3,VALID,0,VALID,93.295,VALID,0,VALID,24.4818,VALID,11,VALID,0,
2010-04-16, 00:30:04,VALID,1001.3,VALID,0,VALID,93.3026,VALID,0,VALID,24.4818,VALID,11,VALID,0,
2010-04-16, 00:31:04,VALID,1001.3,VALID,0,VALID,93.295,VALID,0,VALID,24.4818,VALID,11,VALID,0,
2010-04-16, 00:32:04,VALID,1001.29,VALID,0,VALID,93.295,VALID,0,VALID,24.4818,VALID,11,VALID,0,
2010-04-16, 00:33:04,VALID,1001.24,VALID,0,VALID,93.3103,VALID,0,VALID,24.4818,VALID,11,VALID,0,
2010-04-16, 00:34:04,VALID,1001.24,VALID,0,VALID,93.3255,VALID,0,VALID,24.4818,VALID,11,VALID,0,
2010-04-16, 00:35:04,VALID,1001.21,VALID,0,VALID,93.3255,VALID,0,VALID,24.4623,VALID,11,VALID,0,
2010-04-16, 00:36:04,VALID,1001.23,VALID,0,VALID,93.3255,VALID,0,VALID,24.4623,VALID,11,VALID,0,
2010-04-16, 00:37:04,VALID,1001.2,VALID,0,VALID,93.3408,VALID,0,VALID,24.4623,VALID,11,VALID,0,
2010-04-16, 00:38:04,VALID,1001.19,VALID,0,VALID,93.3408,VALID,0,VALID,24.4623,VALID,11,VALID,0,
2010-04-16, 00:39:04,VALID,1001.16,VALID,0,VALID,93.3331,VALID,0,VALID,24.4818,VALID,11,VALID,0,
2010-04-16, 00:40:04,VALID,1001.16,VALID,0,VALID,93.3408,VALID,0,VALID,24.4818,VALID,11,VALID,0,
2010-04-16, 00:41:04,VALID,1001.11,VALID,0,VALID,93.3789,VALID,0,VALID,24.4818,VALID,11,VALID,0,
2010-04-16, 00:42:04,VALID,1001.13,VALID,0,VALID,93.3789,VALID,0,VALID,24.4818,VALID,11,VALID,0,
2010-04-16, 00:43:04,VALID,1001.11,VALID,0,VALID,93.3637,VALID,0,VALID,24.4623,VALID,11,VALID,0,
2010-04-16, 00:44:04,VALID,1001.12,VALID,0,VALID,93.3637,VALID,0,VALID,24.4623,VALID,86,VALID,0,
2010-04-16, 00:45:04,VALID,1001.11,VALID,0,VALID,93.3637,VALID,0,VALID,24.4428,VALID,86,VALID,0,
2010-04-16, 00:46:04,VALID,1001.13,VALID,0,VALID,93.3637,VALID,0,VALID,24.4428,VALID,102,VALID,0,
2010-04-16, 00:47:04,VALID,1001.12,VALID,0,VALID,93.356,VALID,0,VALID,24.4428,VALID,126,VALID,0,
2010-04-16, 00:48:04,VALID,1001.14,VALID,0,VALID,93.3484,VALID,0,VALID,24.4446,VALID,126,VALID,0,
2010-04-16, 00:49:04,VALID,1001.12,VALID,0,VALID,93.3713,VALID,0,VALID,24.4428,VALID,126,VALID,0,
2010-04-16, 00:50:04,VALID,1001.12,VALID,0,VALID,93.3713,VALID,0,VALID,24.4428,VALID,126,VALID,0,
2010-04-16, 00:51:04,VALID,1001.11,VALID,0,VALID,93.3866,VALID,0,VALID,24.4623,VALID,126,VALID,0,
2010-04-16, 00:52:04,VALID,1001.1,VALID,0,VALID,93.3942,VALID,0,VALID,24.4623,VALID,135,VALID,0,
2010-04-16, 00:53:04,VALID,1001.1,VALID,0,VALID,93.3713,VALID,0,VALID,24.4623,VALID,135,VALID,0,
2010-04-16, 00:54:04,VALID,1001.11,VALID,0,VALID,93.3866,VALID,0,VALID,24.4837,VALID,135,VALID,0,
2010-04-16, 00:55:04,VALID,1001.09,VALID,0,VALID,93.3789,VALID,0,VALID,24.4623,VALID,135,VALID,0,
2010-04-16, 00:56:04,VALID,1001.09,VALID,0,VALID,93.3942,VALID,0,VALID,24.4214,VALID,135,VALID,0,
2010-04-16, 00:57:04,VALID,1001.06,VALID,0,VALID,93.3713,VALID,0,VALID,24.4623,VALID,135,VALID,0,
2010-04-16, 00:58:04,VALID,1001.03,VALID,0,VALID,93.3866,VALID,0,VALID,24.4233,VALID,135,VALID,0,
2010-04-16, 00:59:04,VALID,1001.03,VALID,0,VALID,93.3789,VALID,0,VALID,24.4233,VALID,135,VALID,0,
2010-04-16, 01:00:04,VALID,1000.97,VALID,0,VALID,93.3866,VALID,0,VALID,24.4233,VALID,135,VALID,0,
2010-04-16, 01:01:04,VALID,1000.96,VALID,0,VALID,93.3866,VALID,0,VALID,24.4233,VALID,135,VALID,0,
2010-04-16, 01:02:04,VALID,1000.92,VALID,0,VALID,93.3942,VALID,0,VALID,24.4233,VALID,135,VALID,0,
2010-04-16, 01:03:04,VALID,1000.89,VALID,0,VALID,93.3866,VALID,0,VALID,24.4233,VALID,135,VALID,0,
2010-04-16, 01:04:04,VALID,1000.86,VALID,0,VALID,93.3942,VALID,0,VALID,24.4251,VALID,135,VALID,0,
2010-04-16, 01:05:04,VALID,1000.83,VALID,0,VALID,93.3789,VALID,0,VALID,24.4037,VALID,135,VALID,0,
2010-04-16, 01:06:04,VALID,1000.8,VALID,0,VALID,93.4018,VALID,0,VALID,24.4251,VALID,135,VALID,0,
2010-04-16, 01:07:04,VALID,1000.75,VALID,0,VALID,93.3789,VALID,0,VALID,24.3842,VALID,135,VALID,0,
2010-04-16, 01:08:04,VALID,1000.74,VALID,0,VALID,93.3942,VALID,0,VALID,24.4037,VALID,135,VALID,0,
2010-04-16, 01:09:04,VALID,1000.71,VALID,0,VALID,93.3866,VALID,0,VALID,24.3842,VALID,135,VALID,0,
2010-04-16, 01:10:04,VALID,1000.71,VALID,0,VALID,93.4171,VALID,0,VALID,24.3842,VALID,135,VALID,0,
2010-04-16, 01:11:04,VALID,1000.69,VALID,0,VALID,93.4247,VALID,0,VALID,24.4037,VALID,128,VALID,0.23125,
2010-04-16, 01:12:04,VALID,1000.69,VALID,0,VALID,93.4247,VALID,0,VALID,24.4037,VALID,124,VALID,0.619922,
2010-04-16, 01:13:04,VALID,1000.7,VALID,0,VALID,93.4171,VALID,0,VALID,24.4037,VALID,114,VALID,0.614062,
2010-04-16, 01:14:04,VALID,1000.71,VALID,0,VALID,93.44,VALID,0,VALID,24.3629,VALID,105,VALID,0.583594,
2010-04-16, 01:15:04,VALID,1000.68,VALID,0,VALID,93.3866,VALID,0,VALID,24.3647,VALID,97,VALID,0.698828,
2010-04-16, 01:16:04,VALID,1000.71,VALID,0,VALID,93.3484,VALID,0,VALID,24.3257,VALID,76,VALID,0.805078,
2010-04-16, 01:17:04,VALID,1000.7,VALID,0,VALID,93.356,VALID,0,VALID,24.3062,VALID,76,VALID,0.620703,
2010-04-16, 01:18:04,VALID,1000.68,VALID,0,VALID,93.356,VALID,0,VALID,24.2866,VALID,76,VALID,0.140234,
2010-04-16, 01:19:04,VALID,1000.7,VALID,0,VALID,93.356,VALID,0,VALID,24.2671,VALID,76,VALID,0,
2010-04-16, 01:20:04,VALID,1000.7,VALID,0,VALID,93.3484,VALID,0,VALID,24.2476,VALID,76,VALID,0,
2010-04-16, 01:21:04,VALID,1000.68,VALID,0,VALID,93.3484,VALID,0,VALID,24.2281,VALID,76,VALID,0,
2010-04-16, 01:22:04,VALID,1000.68,VALID,0,VALID,93.3179,VALID,0,VALID,24.2086,VALID,76,VALID,0,
2010-04-16, 01:23:04,VALID,1000.7,VALID,0,VALID,93.3179,VALID,0,VALID,24.1891,VALID,76,VALID,0,
2010-04-16, 01:24:04,VALID,1000.7,VALID,0,VALID,93.3103,VALID,0,VALID,24.1696,VALID,76,VALID,0,
2010-04-16, 01:25:04,VALID,1000.66,VALID,0,VALID,93.3179,VALID,0,VALID,24.15,VALID,76,VALID,0,
2010-04-16, 01:26:04,VALID,1000.68,VALID,0,VALID,93.3484,VALID,0,VALID,24.1305,VALID,76,VALID,0,
2010-04-16, 01:27:04,VALID,1000.68,VALID,0,VALID,93.3484,VALID,0,VALID,24.1305,VALID,76,VALID,0,
2010-04-16, 01:28:04,VALID,1000.67,VALID,0,VALID,93.356,VALID,0,VALID,24.1305,VALID,76,VALID,0,
2010-04-16, 01:29:04,VALID,1000.67,VALID,0,VALID,93.3713,VALID,0,VALID,24.1519,VALID,76,VALID,0,
2010-04-16, 01:30:04,VALID,1000.69,VALID,0,VALID,93.356,VALID,0,VALID,24.111,VALID,76,VALID,0,
2010-04-16, 01:31:04,VALID,1000.67,VALID,0,VALID,93.3331,VALID,0,VALID,24.0915,VALID,76,VALID,0,
2010-04-16, 01:32:04,VALID,1000.65,VALID,0,VALID,93.356,VALID,0,VALID,24.0915,VALID,76,VALID,0,
2010-04-16, 01:33:04,VALID,1000.61,VALID,0,VALID,93.4171,VALID,0,VALID,24.1305,VALID,76,VALID,0,
2010-04-16, 01:34:04,VALID,1000.6,VALID,0,VALID,93.4094,VALID,0,VALID,24.1305,VALID,76,VALID,0,
2010-04-16, 01:35:04,VALID,1000.59,VALID,0,VALID,93.3866,VALID,0,VALID,24.111,VALID,76,VALID,0,
2010-04-16, 01:36:04,VALID,1000.57,VALID,0,VALID,93.3637,VALID,0,VALID,24.0915,VALID,76,VALID,0,
2010-04-16, 01:37:04,VALID,1000.6,VALID,0,VALID,93.4018,VALID,0,VALID,24.111,VALID,76,VALID,0,
2010-04-16, 01:38:04,VALID,1000.61,VALID,0,VALID,93.4247,VALID,0,VALID,24.0915,VALID,76,VALID,0,
2010-04-16, 01:39:04,VALID,1000.63,VALID,0,VALID,93.4476,VALID,0,VALID,24.111,VALID,79,VALID,0,
2010-04-16, 01:40:04,VALID,1000.65,VALID,0,VALID,93.4705,VALID,0,VALID,24.111,VALID,84,VALID,0,
2010-04-16, 01:41:04,VALID,1000.66,VALID,0,VALID,93.4705,VALID,0,VALID,24.15,VALID,84,VALID,0,
2010-04-16, 01:42:04,VALID,1000.66,VALID,0,VALID,93.4323,VALID,0,VALID,24.1305,VALID,84,VALID,0,
2010-04-16, 01:43:04,VALID,1000.65,VALID,0,VALID,93.4705,VALID,0,VALID,24.1305,VALID,83,VALID,0,
2010-04-16, 01:44:04,VALID,1000.6,VALID,0,VALID,93.4476,VALID,0,VALID,24.1305,VALID,83,VALID,0,
2010-04-16, 01:45:04,VALID,1000.62,VALID,0,VALID,93.4247,VALID,0,VALID,24.111,VALID,60,VALID,0.576563,
2010-04-16, 01:46:04,VALID,1000.57,VALID,0,VALID,93.4018,VALID,0,VALID,24.072,VALID,60,VALID,0.432813,
2010-04-16, 01:47:04,VALID,1000.53,VALID,0,VALID,93.3713,VALID,0,VALID,24.072,VALID,60,VALID,0.189453,
2010-04-16, 01:48:04,VALID,1000.51,VALID,0,VALID,93.3942,VALID,0,VALID,24.0329,VALID,60,VALID,0,
2010-04-16, 01:49:04,VALID,1000.44,VALID,0,VALID,93.4018,VALID,0,VALID,24.0134,VALID,60,VALID,0,
2010-04-16, 01:50:04,VALID,1000.44,VALID,0,VALID,93.3866,VALID,0,VALID,23.9939,VALID,60,VALID,0,
2010-04-16, 01:51:04,VALID,1000.42,VALID,0,VALID,93.4018,VALID,0,VALID,24.0134,VALID,60,VALID,0,
2010-04-16, 01:52:04,VALID,1000.41,VALID,0,VALID,93.356,VALID,0,VALID,23.9549,VALID,57,VALID,0.0867188,
2010-04-16, 01:53:04,VALID,1000.38,VALID,0,VALID,93.356,VALID,0,VALID,23.9354,VALID,48,VALID,0.189844,
2010-04-16, 01:54:04,VALID,1000.37,VALID,0,VALID,93.3942,VALID,0,VALID,23.9159,VALID,48,VALID,0,
2010-04-16, 01:55:04,VALID,1000.35,VALID,0,VALID,93.3866,VALID,0,VALID,23.9159,VALID,48,VALID,0,
2010-04-16, 01:56:04,VALID,1000.34,VALID,0,VALID,93.4018,VALID,0,VALID,23.8963,VALID,48,VALID,0,
2010-04-16, 01:57:04,VALID,1000.29,VALID,0,VALID,93.44,VALID,0,VALID,23.9354,VALID,48,VALID,0,
2010-04-16, 01:58:04,VALID,1000.26,VALID,0,VALID,93.4476,VALID,0,VALID,23.9159,VALID,48,VALID,0,
2010-04-16, 01:59:04,VALID,1000.25,VALID,0,VALID,93.4705,VALID,0,VALID,23.9354,VALID,48,VALID,0,
2010-04-16, 02:00:04,VALID,1000.23,VALID,0,VALID,93.4857,VALID,0,VALID,23.9354,VALID,48,VALID,0,
2010-04-16, 02:01:04,VALID,1000.19,VALID,0,VALID,93.4705,VALID,0,VALID,23.9354,VALID,48,VALID,0,
2010-04-16, 02:02:04,VALID,1000.21,VALID,0,VALID,93.4781,VALID,0,VALID,23.9354,VALID,48,VALID,0,
2010-04-16, 02:03:04,VALID,1000.22,VALID,0,VALID,93.4934,VALID,0,VALID,23.9159,VALID,48,VALID,0,
2010-04-16, 02:04:04,VALID,1000.19,VALID,0,VALID,93.4857,VALID,0,VALID,23.8963,VALID,48,VALID,0,
2010-04-16, 02:05:04,VALID,1000.19,VALID,0,VALID,93.5239,VALID,0,VALID,23.9159,VALID,88,VALID,0,
2010-04-16, 02:06:04,VALID,1000.17,VALID,0,VALID,93.5391,VALID,0,VALID,23.914,VALID,88,VALID,0,
2010-04-16, 02:07:04,VALID,1000.14,VALID,0,VALID,93.5239,VALID,0,VALID,23.9549,VALID,88,VALID,0,
2010-04-16, 02:08:04,VALID,1000.13,VALID,0,VALID,93.4857,VALID,0,VALID,23.9549,VALID,88,VALID,0,
2010-04-16, 02:09:04,VALID,1000.11,VALID,0,VALID,93.4323,VALID,0,VALID,23.9159,VALID,88,VALID,0,
2010-04-16, 02:10:04,VALID,1000.11,VALID,0,VALID,93.4476,VALID,0,VALID,23.8963,VALID,88,VALID,0,
2010-04-16, 02:11:04,VALID,1000.1,VALID,0,VALID,93.4857,VALID,0,VALID,23.9372,VALID,88,VALID,0,
2010-04-16, 02:12:04,VALID,1000.05,VALID,0,VALID,93.5086,VALID,0,VALID,23.9354,VALID,88,VALID,0,
2010-04-16, 02:13:04,VALID,1000.05,VALID,0,VALID,93.5239,VALID,0,VALID,23.9762,VALID,88,VALID,0,
2010-04-16, 02:14:04,VALID,1000.02,VALID,0,VALID,93.5239,VALID,0,VALID,23.9939,VALID,88,VALID,0,
2010-04-16, 02:15:04,VALID,1000.02,VALID,0,VALID,93.5315,VALID,0,VALID,24.0134,VALID,88,VALID,0,
2010-04-16, 02:16:04,VALID,1000.01,VALID,0,VALID,93.4934,VALID,0,VALID,24.0134,VALID,88,VALID,0,
2010-04-16, 02:17:04,VALID,999.969,VALID,0,VALID,93.4628,VALID,0,VALID,23.9939,VALID,88,VALID,0,
2010-04-16, 02:18:04,VALID,999.98,VALID,0,VALID,93.4247,VALID,0,VALID,23.9744,VALID,88,VALID,0,
2010-04-16, 02:19:04,VALID,999.981,VALID,0,VALID,93.4018,VALID,0,VALID,23.9549,VALID,88,VALID,0,
2010-04-16, 02:20:04,VALID,999.974,VALID,0,VALID,93.3866,VALID,0,VALID,23.9354,VALID,88,VALID,0,
2010-04-16, 02:21:04,VALID,999.947,VALID,0,VALID,93.3713,VALID,0,VALID,23.9159,VALID,88,VALID,0,
2010-04-16, 02:22:04,VALID,999.942,VALID,0,VALID,93.3789,VALID,0,VALID,23.9159,VALID,88,VALID,0,
2010-04-16, 02:23:04,VALID,999.936,VALID,0,VALID,93.4094,VALID,0,VALID,23.9354,VALID,88,VALID,0,
2010-04-16, 02:24:04,VALID,999.926,VALID,0,VALID,93.4323,VALID,0,VALID,23.9354,VALID,88,VALID,0,
2010-04-16, 02:25:04,VALID,999.94,VALID,0,VALID,93.4247,VALID,0,VALID,23.9549,VALID,88,VALID,0,
2010-04-16, 02:26:04,VALID,999.953,VALID,0,VALID,93.4094,VALID,0,VALID,23.9762,VALID,88,VALID,0,
2010-04-16, 02:27:04,VALID,999.987,VALID,0,VALID,93.4018,VALID,0,VALID,23.9744,VALID,88,VALID,0,
2010-04-16, 02:28:04,VALID,999.984,VALID,0,VALID,93.3637,VALID,0,VALID,23.9549,VALID,88,VALID,0,
2010-04-16, 02:29:04,VALID,1000.01,VALID,0,VALID,93.3408,VALID,0,VALID,23.9939,VALID,88,VALID,0,
2010-04-16, 02:30:04,VALID,1000.02,VALID,0,VALID,93.3255,VALID,0,VALID,23.9939,VALID,106,VALID,0,
2010-04-16, 02:31:04,VALID,1000.04,VALID,0,VALID,93.2721,VALID,0,VALID,24.0153,VALID,114,VALID,0,
2010-04-16, 02:32:04,VALID,1000.03,VALID,0,VALID,93.2187,VALID,0,VALID,23.9939,VALID,114,VALID,0,
2010-04-16, 02:33:04,VALID,1000.05,VALID,0,VALID,93.2111,VALID,0,VALID,24.0134,VALID,115,VALID,0,
2010-04-16, 02:34:04,VALID,1000.04,VALID,0,VALID,93.1424,VALID,0,VALID,23.9939,VALID,121,VALID,0,
2010-04-16, 02:35:04,VALID,1000.04,VALID,0,VALID,93.0508,VALID,0,VALID,23.9744,VALID,123,VALID,0,
2010-04-16, 02:36:04,VALID,1000.07,VALID,0,VALID,92.9745,VALID,0,VALID,23.914,VALID,123,VALID,0,
2010-04-16, 02:37:04,VALID,1000.04,VALID,0,VALID,92.9974,VALID,0,VALID,23.9159,VALID,123,VALID,0,
2010-04-16, 02:38:04,VALID,1000.03,VALID,0,VALID,92.9745,VALID,0,VALID,23.8768,VALID,123,VALID,0,
2010-04-16, 02:39:04,VALID,1000.05,VALID,0,VALID,92.9364,VALID,0,VALID,23.8573,VALID,123,VALID,0,
2010-04-16, 02:40:04,VALID,1000.04,VALID,0,VALID,92.9288,VALID,0,VALID,23.8183,VALID,123,VALID,0,
2010-04-16, 02:41:04,VALID,1000.05,VALID,0,VALID,92.9669,VALID,0,VALID,23.7988,VALID,123,VALID,0,
2010-04-16, 02:42:04,VALID,1000.08,VALID,0,VALID,92.9898,VALID,0,VALID,23.7793,VALID,123,VALID,0,
2010-04-16, 02:43:04,VALID,1000.1,VALID,0,VALID,93.0432,VALID,0,VALID,23.7793,VALID,123,VALID,0,
2010-04-16, 02:44:04,VALID,1000.1,VALID,0,VALID,93.0127,VALID,0,VALID,23.7597,VALID,123,VALID,0,
2010-04-16, 02:45:04,VALID,1000.12,VALID,0,VALID,93.0203,VALID,0,VALID,23.7207,VALID,123,VALID,0,
2010-04-16, 02:46:04,VALID,1000.1,VALID,0,VALID,93.0432,VALID,0,VALID,23.7207,VALID,123,VALID,0,
2010-04-16, 02:47:04,VALID,1000.1,VALID,0,VALID,93.0814,VALID,0,VALID,23.7207,VALID,123,VALID,0,
2010-04-16, 02:48:04,VALID,1000.12,VALID,0,VALID,93.1271,VALID,0,VALID,23.7012,VALID,123,VALID,0,
2010-04-16, 02:49:04,VALID,1000.09,VALID,0,VALID,93.1653,VALID,0,VALID,23.7207,VALID,123,VALID,0,
2010-04-16, 02:50:04,VALID,1000.11,VALID,0,VALID,93.1805,VALID,0,VALID,23.742,VALID,123,VALID,0,
2010-04-16, 02:51:04,VALID,1000.13,VALID,0,VALID,93.2034,VALID,0,VALID,23.7207,VALID,123,VALID,0,
2010-04-16, 02:52:04,VALID,1000.15,VALID,0,VALID,93.2263,VALID,0,VALID,23.7012,VALID,123,VALID,0,
2010-04-16, 02:53:04,VALID,1000.17,VALID,0,VALID,93.2645,VALID,0,VALID,23.6994,VALID,123,VALID,0,
2010-04-16, 02:54:04,VALID,1000.18,VALID,0,VALID,93.2645,VALID,0,VALID,23.7012,VALID,123,VALID,0,
2010-04-16, 02:55:04,VALID,1000.2,VALID,0,VALID,93.2645,VALID,0,VALID,23.742,VALID,123,VALID,0,
2010-04-16, 02:56:04,VALID,1000.21,VALID,0,VALID,93.3026,VALID,0,VALID,23.7012,VALID,123,VALID,0,
2010-04-16, 02:57:04,VALID,1000.22,VALID,0,VALID,93.3026,VALID,0,VALID,23.7012,VALID,92,VALID,0,
2010-04-16, 02:58:04,VALID,1000.2,VALID,0,VALID,93.3103,VALID,0,VALID,23.7012,VALID,54,VALID,0,
2010-04-16, 02:59:04,VALID,1000.16,VALID,0,VALID,93.3331,VALID,0,VALID,23.7207,VALID,45,VALID,0,
2010-04-16, 03:00:04,VALID,1000.18,VALID,0,VALID,93.3103,VALID,0,VALID,23.7012,VALID,45,VALID,0,
2010-04-16, 03:01:04,VALID,1000.21,VALID,0,VALID,93.2721,VALID,0,VALID,23.6835,VALID,45,VALID,0,
2010-04-16, 03:02:04,VALID,1000.22,VALID,0,VALID,93.3331,VALID,0,VALID,23.6622,VALID,45,VALID,0,
2010-04-16, 03:03:04,VALID,1000.19,VALID,0,VALID,93.2568,VALID,0,VALID,23.6232,VALID,45,VALID,0,
2010-04-16, 03:04:04,VALID,1000.17,VALID,0,VALID,93.2645,VALID,0,VALID,23.6036,VALID,45,VALID,0,
2010-04-16, 03:05:04,VALID,1000.18,VALID,0,VALID,93.3331,VALID,0,VALID,23.5841,VALID,45,VALID,0,
2010-04-16, 03:06:04,VALID,1000.16,VALID,0,VALID,93.3408,VALID,0,VALID,23.5841,VALID,45,VALID,0,
2010-04-16, 03:07:04,VALID,1000.18,VALID,0,VALID,93.3331,VALID,0,VALID,23.5841,VALID,45,VALID,0,
2010-04-16, 03:08:04,VALID,1000.19,VALID,0,VALID,93.3713,VALID,0,VALID,23.5841,VALID,45,VALID,0,
2010-04-16, 03:09:04,VALID,1000.19,VALID,0,VALID,93.3713,VALID,0,VALID,23.5628,VALID,45,VALID,0,
2010-04-16, 03:10:04,VALID,1000.21,VALID,0,VALID,93.3713,VALID,0,VALID,23.5646,VALID,45,VALID,0,
2010-04-16, 03:11:04,VALID,1000.2,VALID,0,VALID,93.4171,VALID,0,VALID,23.5646,VALID,45,VALID,0,
2010-04-16, 03:12:04,VALID,1000.22,VALID,0,VALID,93.4323,VALID,0,VALID,23.5841,VALID,45,VALID,0,
2010-04-16, 03:13:04,VALID,1000.22,VALID,0,VALID,93.4476,VALID,0,VALID,23.5433,VALID,45,VALID,0,
2010-04-16, 03:14:04,VALID,1000.26,VALID,0,VALID,93.4323,VALID,0,VALID,23.5841,VALID,45,VALID,0,
2010-04-16, 03:15:04,VALID,1000.23,VALID,0,VALID,93.4552,VALID,0,VALID,23.5433,VALID,45,VALID,0,
2010-04-16, 03:16:05,VALID,1000.26,VALID,0,VALID,93.4934,VALID,0,VALID,23.5451,VALID,47,VALID,0,
2010-04-16, 03:17:05,VALID,1000.27,VALID,0,VALID,93.4934,VALID,0,VALID,23.5433,VALID,60,VALID,0,
2010-04-16, 03:18:05,VALID,1000.28,VALID,0,VALID,93.4705,VALID,0,VALID,23.5451,VALID,60,VALID,0,
2010-04-16, 03:19:05,VALID,1000.29,VALID,0,VALID,93.5468,VALID,0,VALID,23.5451,VALID,60,VALID,0.625781,
2010-04-16, 03:20:05,VALID,1000.26,VALID,0,VALID,93.4781,VALID,0,VALID,23.5043,VALID,48,VALID,0.935938,
2010-04-16, 03:21:05,VALID,1000.27,VALID,0,VALID,93.4247,VALID,0,VALID,23.4671,VALID,32,VALID,1.0293,
2010-04-16, 03:22:05,VALID,1000.26,VALID,0,VALID,93.4476,VALID,0,VALID,23.4475,VALID,23,VALID,1.11211,
2010-04-16, 03:23:05,VALID,1000.25,VALID,0,VALID,93.5315,VALID,0,VALID,23.4671,VALID,15,VALID,0.912891,
2010-04-16, 03:24:05,VALID,1000.28,VALID,0,VALID,93.5391,VALID,0,VALID,23.4866,VALID,13,VALID,0.753125,
2010-04-16, 03:25:05,VALID,1000.3,VALID,0,VALID,93.5163,VALID,0,VALID,23.4475,VALID,13,VALID,0.451172,
2010-04-16, 03:26:05,VALID,1000.32,VALID,0,VALID,93.4705,VALID,0,VALID,23.428,VALID,13,VALID,0,
2010-04-16, 03:27:05,VALID,1000.3,VALID,0,VALID,93.4552,VALID,0,VALID,23.3677,VALID,13,VALID,0,
2010-04-16, 03:28:05,VALID,1000.29,VALID,0,VALID,93.5086,VALID,0,VALID,23.3908,VALID,13,VALID,0,
2010-04-16, 03:29:05,VALID,1000.3,VALID,0,VALID,93.5544,VALID,0,VALID,23.3695,VALID,21,VALID,0,
2010-04-16, 03:30:05,VALID,1000.34,VALID,0,VALID,93.501,VALID,0,VALID,23.3695,VALID,21,VALID,0,
2010-04-16, 03:31:05,VALID,1000.33,VALID,0,VALID,93.5239,VALID,0,VALID,23.3695,VALID,21,VALID,0,
2010-04-16, 03:32:05,VALID,1000.37,VALID,0,VALID,93.5239,VALID,0,VALID,23.3287,VALID,17,VALID,0.738672,
2010-04-16, 03:33:05,VALID,1000.37,VALID,0,VALID,93.6002,VALID,0,VALID,23.3695,VALID,13,VALID,0.668359,
2010-04-16, 03:34:05,VALID,1000.39,VALID,0,VALID,93.6154,VALID,0,VALID,23.389,VALID,13,VALID,0.642578,
2010-04-16, 03:35:05,VALID,1000.41,VALID,0,VALID,93.6078,VALID,0,VALID,23.4085,VALID,13,VALID,0,
2010-04-16, 03:36:05,VALID,1000.47,VALID,0,VALID,93.6383,VALID,0,VALID,23.428,VALID,12,VALID,0,
2010-04-16, 03:37:05,VALID,1000.44,VALID,0,VALID,93.6154,VALID,0,VALID,23.4067,VALID,12,VALID,0,
2010-04-16, 03:38:05,VALID,1000.47,VALID,0,VALID,93.6383,VALID,0,VALID,23.428,VALID,12,VALID,0,
2010-04-16, 03:39:05,VALID,1000.48,VALID,0,VALID,93.6307,VALID,0,VALID,23.428,VALID,12,VALID,0,
2010-04-16, 03:40:05,VALID,1000.46,VALID,0,VALID,93.6154,VALID,0,VALID,23.3872,VALID,12,VALID,0,
2010-04-16, 03:41:05,VALID,1000.47,VALID,0,VALID,93.5926,VALID,0,VALID,23.4085,VALID,12,VALID,0,
2010-04-16, 03:42:05,VALID,1000.43,VALID,0,VALID,93.5697,VALID,0,VALID,23.389,VALID,12,VALID,0,
2010-04-16, 03:43:05,VALID,1000.43,VALID,0,VALID,93.5773,VALID,0,VALID,23.389,VALID,12,VALID,0,
2010-04-16, 03:44:05,VALID,1000.43,VALID,0,VALID,93.6231,VALID,0,VALID,23.4085,VALID,12,VALID,0,
2010-04-16, 03:45:05,VALID,1000.41,VALID,0,VALID,93.646,VALID,0,VALID,23.428,VALID,12,VALID,0,
2010-04-16, 03:46:05,VALID,1000.42,VALID,0,VALID,93.6841,VALID,0,VALID,23.4475,VALID,12,VALID,0,
2010-04-16, 03:47:05,VALID,1000.41,VALID,0,VALID,93.7146,VALID,0,VALID,23.4866,VALID,12,VALID,0,
2010-04-16, 03:48:05,VALID,1000.43,VALID,0,VALID,93.7375,VALID,0,VALID,23.5061,VALID,12,VALID,0,
2010-04-16, 03:49:05,VALID,1000.46,VALID,0,VALID,93.7223,VALID,0,VALID,23.5061,VALID,19,VALID,0,
2010-04-16, 03:50:05,VALID,1000.47,VALID,0,VALID,93.7299,VALID,0,VALID,23.5043,VALID,19,VALID,0.485547,
2010-04-16, 03:51:05,VALID,1000.5,VALID,0,VALID,93.7146,VALID,0,VALID,23.5238,VALID,55,VALID,0.598047,
2010-04-16, 03:52:05,VALID,1000.54,VALID,0,VALID,93.6765,VALID,0,VALID,23.5061,VALID,80,VALID,0.805469,
2010-04-16, 03:53:05,VALID,1000.58,VALID,0,VALID,93.6078,VALID,0,VALID,23.4475,VALID,90,VALID,0.974219,
2010-04-16, 03:54:05,VALID,1000.58,VALID,0,VALID,93.5697,VALID,0,VALID,23.4085,VALID,90,VALID,0.994922,
2010-04-16, 03:55:05,VALID,1000.58,VALID,0,VALID,93.562,VALID,0,VALID,23.3695,VALID,90,VALID,0.679297,
2010-04-16, 03:56:05,VALID,1000.61,VALID,0,VALID,93.5697,VALID,0,VALID,23.3305,VALID,90,VALID,0.723047,
2010-04-16, 03:57:05,VALID,1000.63,VALID,0,VALID,93.6002,VALID,0,VALID,23.3305,VALID,81,VALID,0.749609,
2010-04-16, 03:58:05,VALID,1000.68,VALID,0,VALID,93.6383,VALID,0,VALID,23.311,VALID,78,VALID,0.766016,